Weather History for Kandahar, Afghanistan

Change the Weather History Date:

Wednesday, November 21, 2012

  Actual Average Record
Temperature  
Mean Temperature 55 °F -  
Max Temperature 64 °F 63 °F - ()
Min Temperature 46 °F 35 °F - ()
Degree Days  
Heating Degree Days 10    
Growing Degree Days 5 (Base 50)    
Moisture  
Dew Point 16 °F    
Average Humidity 22    
Maximum Humidity 29    
Minimum Humidity 13    
Precipitation  
Precipitation 0.00 in 0.02 in - ()
Sea Level Pressure  
Sea Level Pressure 30.06 in    
Wind  
Wind Speed 3 mph ()    
Max Wind Speed 7 mph    
Max Gust Speed -    
Visibility 6.2 miles    
Events      
T = Trace of Precipitation, MM = Missing Value Source: Averaged Metar Reports

Daily Weather History Graph

Daily Weather History Graph

Search for Another Location

Airport:

Trip Planner

Search our weather history database for the weather conditions in past years. The results will help you decide how hot, cold, wet, or windy it might be!

Date:

Astronomy

Nov. 21, 2012 Rise Set
Actual Time 6:39 AM AFT 5:05 PM AFT
Civil Twilight 6:13 AM AFT 5:31 PM AFT
Nautical Twilight 5:44 AM AFT 6:00 PM AFT
Astronomical Twilight 5:14 AM AFT 6:29 PM AFT
Moon 12:46 PM AFT (11/21) No Moon Set
Length of Visible Light 11h 17m
Length of Day
10h 25m
First Quarter, 57% of the Moon is Illuminated
Nov 21
First Quarter
Nov 28
Full
Dec 6
Last Quarter
Dec 13
New
Dec 20
First Quarter

Hourly Weather History & Observations

Time (AFT) Temp. Dew Point Humidity Pressure Visibility Wind Dir Wind Speed Gust Speed Precip Events Conditions
12:20 AM 51.8 °F 15.8 °F 24% 30.12 in 6.2 mi Variable 3.5 mph - N/A   Mostly Cloudy
1:20 AM 51.8 °F 14.0 °F 22% 30.10 in 6.2 mi Variable 2.3 mph - N/A   Mostly Cloudy
2:20 AM 50.0 °F 14.0 °F 24% 30.10 in 6.2 mi Variable 2.3 mph - N/A   Mostly Cloudy
3:20 AM 48.2 °F 14.0 °F 25% 30.10 in 6.2 mi Variable 2.3 mph - N/A   Mostly Cloudy
4:20 AM 48.2 °F 14.0 °F 25% 30.11 in 6.2 mi Variable 2.3 mph - N/A   Mostly Cloudy
5:20 AM 46.4 °F 14.0 °F 27% 30.12 in 6.2 mi Variable 2.3 mph - N/A   Mostly Cloudy
6:20 AM 46.4 °F 14.0 °F 27% 30.13 in 6.2 mi Variable 2.3 mph - N/A   Mostly Cloudy
7:20 AM 48.2 °F 14.0 °F 25% 30.13 in 6.2 mi Variable 2.3 mph - N/A   Mostly Cloudy
8:20 AM 51.8 °F 14.0 °F 22% 30.14 in 6.2 mi Calm Calm - N/A   Mostly Cloudy
9:20 AM 53.6 °F 14.0 °F 21% 30.12 in 6.2 mi Variable 2.3 mph - N/A   Mostly Cloudy
10:20 AM 57.2 °F 14.0 °F 18% 30.11 in 6.2 mi Calm Calm - N/A   Mostly Cloudy
11:20 AM 59.0 °F 14.0 °F 17% 30.06 in 6.2 mi ENE 6.9 mph - N/A   Mostly Cloudy
12:20 PM 62.6 °F 14.0 °F 15% 30.02 in 6.2 mi SE 3.5 mph - N/A   Mostly Cloudy
1:20 PM 64.4 °F 14.0 °F 14% 29.99 in 6.2 mi WNW 4.6 mph - N/A   Mostly Cloudy
2:20 PM 64.4 °F 12.2 °F 13% 30.01 in 6.2 mi NNE 3.5 mph - N/A   Mostly Cloudy
3:20 PM 62.6 °F 12.2 °F 14% 29.96 in 6.2 mi West 6.9 mph - N/A   Mostly Cloudy
4:20 PM 62.6 °F 12.2 °F 14% 29.96 in 6.2 mi West 6.9 mph - N/A   Mostly Cloudy
5:20 PM 60.8 °F 14.0 °F 16% 29.98 in 6.2 mi West 6.9 mph - N/A   Mostly Cloudy
6:20 PM 59.0 °F 15.8 °F 19% 30.00 in 6.2 mi West 3.5 mph - N/A   Mostly Cloudy
7:20 PM 57.2 °F 21.2 °F 25% 30.02 in 6.2 mi West 3.5 mph - N/A   Mostly Cloudy
8:20 PM 55.4 °F 21.2 °F 26% 30.03 in 6.2 mi WSW 3.5 mph - N/A   Mostly Cloudy
9:20 PM 57.2 °F 23.0 °F 27% 30.06 in 6.2 mi Variable 2.3 mph - N/A   Mostly Cloudy
10:20 PM 55.4 °F 23.0 °F 29% 30.06 in 6.2 mi Variable 3.5 mph - N/A   Mostly Cloudy
11:20 PM 55.4 °F 23.0 °F 29% 30.07 in 6.2 mi Variable 2.3 mph - N/A   Mostly Cloudy